Location: Csohesd
(46.2500°N, 22.6167°E)
Time: 14:45:07
(UTC+00:00)

SL-19 R/B - Pass Details

Date: 05 June 2022
Orbit: 874 x 1208 km, 100.6° (Epoch: 03 July)

Event Time Altitude Azimuth Distance (km) Brightness Sun altitude
Rises 01:58:46 0° 90° (E) 3,740 8.4 -6.3°
Reaches altitude 10° 02:03:15 10° 59° (ENE) 2,877 8.7 -5.8°
Maximum altitude 02:05:13 12° 42° (NE) 2,802 8.7 -5.5°
Drops below altitude 10° 02:07:12 10° 24° (NNE) 2,952 8.3 -5.2°
Sets 02:11:59 0° 355° (N) 3,993 8.2 -4.6°
